CZ-6A DEB, 56609

Orbit data source: Space-Track

CZ-6A DEB, 56609 is space debris in SSO originally from a launch on Fri, 11 Nov 2022 UTC launched from the Taiyaun Space Center, China (TSC). Debris objects in space refer to the collection of defunct objects orbiting the Earth. Examples of debris include non-operational satellites, rocket bodies, and fragments generated from explosions, collisions, or faulty payload assembly.

Loading next visibility...
Identifier
56609, 2022-151AEH
Orbit
SSO
Country
Flag of CNCN / PRC
Related business
Manufacturer
SAST
Mission
Spacecraft
Bus & Motor
Unknown
Mass
Unknown
Launch date (UTC)
2022-11-11 (3 years ago)
Launch vehicle
Unknown
Launch site
Taiyaun Space Center, China (TSC)
Object type
Payload
Rocket body
Debris
Shape & HBR
Unknown shape, 0.1 m
Radar Cross Section
Small (<0.1 m²)

Expand to show TLE details & history
Last TLE update: 2 days ago

TLE from 2 days ago
0 CZ-6A DEB
1 56609U 22151AEH 25348.17848858  .00001432  00000-0  10283-2 0  9994
2 56609  98.8527 314.3214 0123034 208.9930 150.4361 13.94986155134198
Epoch: 2025-12-14T04:17Z
TLE epoch observation values (Epoch: 2025-12-14T04:17:01.413Z)
Latitude
Longitude
166.97038°
Altitude
992.372 km
Speed
7.316 km/s
True Right ascension
20h 57m 17s
True Declination
0° 00' 00"
Sunlit
Object was in daylight at epoch
Visualization orbit readout
Latitude
Unknown
Longitude
Unknown
Altitude
Unknown
Speed
Unknown
Apparent Right ascension
Unknown
Apparent Declination
Unknown
Sunlit
N/A
Visualization observer readout
Local Sidereal Time
17:25:43
Azimuth
Unknown
Elevation
Unknown
Doppler factor
Unknown
Orbital elements
Apogee altitude
998.057 km
Perigee altitude
818.758 km
Semi-major axis
7,286.545 km
Eccentricity
0.0123
Inclination
98.8527°
RAAN
314.3214°
Arg. of periapsis
208.993°
True anomaly
151.12252°
Mean anomaly
150.4361°
Eccentric anomaly
150.78022°
Mean motion
3.48948 °/min
Orbital period
103.17 mins
BSTAR
0.0010283
Loading maneuver chart data...
Computing Atmospheric mass density...
Loading historical data...
Loading historical data...
Loading historical data...
Loading historical data...
Loading historical data...
Loading historical data...
Loading historical data...

Documentation

Showing up to 5 results
|